Theta_e
288 288 287 287 287 286 286 285 285 284 284 283 283 283 282 282 282 281 281 280 280 280 279 279 279 279 279 279 279 279 280 280 280 280 280 280 280 280 280 280 280 280
287 287 287 286 286 285 285 284 284 283 283 282 282 282 281 281 281 281 280 280 279 279 279 279 278 279 279 279 279 279 279 279 279 279 279 279 279 279 279 279 279 279
287 286 286 285 285 284 284 283 283 282 282 282 281 281 280 280 280 280 279 279 278 278 278 278 278 278 278 278 278 278 278 278 278 278 278 279 279 279 279 279 279 279
286 286 285 285 284 284 283 283 282 282 282 281 280 280 280 280 280 279 279 278 278 278 278 278 278 278 278 278 278 278 278 278 278 278 278 278 278 278 278 278 278 278
286 285 284 284 283 283 282 282 282 282 281 280 280 280 279 279 279 279 278 278 278 278 278 277 277 277 277 277 277 277 277 277 277 277 277 277 277 277 277 277 277 277
285 284 284 283 283 282 282 282 281 281 280 280 279 279 278 278 278 278 278 278 277 277 277 277 277 277 277 276 276 276 276 276 276 276 276 276 276 276 276 276 277 277
284 283 283 283 282 282 282 281 281 280 280 279 279 278 278 278 278 278 277 277 277 276 276 276 276 276 276 276 275 275 275 275 275 275 275 275 275 275 275 275 276 276
283 283 282 282 282 281 281 280 280 279 279 278 278 278 278 277 277 277 276 276 276 275 275 275 275 275 275 275 275 275 275 275 274 274 274 274 275 275 275 275 275 275
283 282 282 281 281 280 280 280 279 278 278 278 278 277 277 277 276 276 276 275 275 275 275 275 275 274 274 274 274 274 274 274 274 274 274 274 274 274 274 274 274 274
282 281 281 280 280 280 279 279 278 278 278 278 277 277 276 276 276 275 275 274 274 274 274 274 274 274 274 274 273 273 273 273 273 273 273 273 274 274 274 274 274 274
281 280 280 279 279 279 278 278 277 277 277 277 277 276 276 275 275 274 274 274 274 274 274 274 274 273 273 273 273 273 273 273 273 273 273 273 273 273 273 273 274 274
280 280 279 279 279 278 278 277 277 277 277 276 276 275 275 274 274 274 274 273 273 274 274 273 273 273 273 273 273 273 273 273 273 273 273 273 273 273 273 273 273 274
279 279 279 278 278 278 277 277 277 276 276 276 275 275 274 274 274 273 273 273 274 274 273 273 273 273 273 273 273 273 273 273 273 273 273 273 273 273 273 273 273 273
279 279 279 278 277 277 277 277 276 276 275 275 275 275 275 275 274 273 273 273 273 273 273 273 273 273 273 273 273 273 272 273 273 273 273 274 274 274 274 274 273 273
279 278 278 277 277 277 276 276 276 276 275 275 275 275 275 275 274 273 273 273 273 273 273 273 272 272 273 273 272 272 273 273 273 274 274 274 274 274 274 274 274 274
278 278 277 277 276 276 276 275 275 275 275 275 275 275 275 275 273 273 273 272 272 272 272 272 272 272 273 273 273 273 274 274 274 275 275 275 275 275 275 275 275 275
277 277 276 276 276 276 275 275 275 275 275 275 275 275 275 274 273 273 272 272 272 272 272 272 272 272 272 273 273 274 274 275 275 275 275 275 275 276 276 276 276 276
277 276 276 276 275 275 275 275 275 275 275 275 275 274 274 273 273 272 272 271 271 271 272 272 272 272 272 272 273 274 275 275 275 275 275 276 276 276 276 276 276 276
276 276 276 275 275 275 275 275 275 274 274 274 274 274 273 273 273 272 271 271 271 271 271 271 272 272 272 272 273 274 275 275 276 276 276 276 276 275 275 275 275 275
276 276 275 274 274 275 275 274 274 274 274 274 274 273 272 272 272 271 270 270 270 270 270 271 272 273 272 272 273 274 275 276 276 276 275 275 275 275 275 275 275 275
275 275 274 274 274 274 274 274 274 274 274 273 273 272 271 272 272 270 270 270 270 270 270 270 272 273 272 272 273 274 275 275 275 275 275 275 275 275 275 275 275 275
275 275 274 273 274 273 273 273 273 273 273 272 272 271 271 271 271 270 270 270 270 270 269 269 272 273 271 272 273 274 275 275 274 274 275 275 275 275 275 275 275 275
275 275 274 273 273 273 273 273 273 272 272 271 271 270 270 270 270 269 269 270 270 270 269 268 271 272 271 271 273 273 274 274 274 274 274 274 275 275 275 275 275 275
275 275 274 273 273 273 273 273 272 271 271 271 271 270 270 270 269 268 269 269 269 270 269 268 270 271 271 271 273 273 274 274 274 274 274 274 275 275 275 275 275 276
274 274 274 273 273 273 273 272 271 271 271 271 270 270 270 269 267 267 269 270 269 269 269 269 269 270 270 271 272 273 274 274 274 274 274 275 275 275 275 275 275 275
273 273 273 273 273 272 272 272 271 271 270 270 269 269 268 267 267 267 268 269 269 269 269 269 269 270 270 271 272 273 273 274 274 274 275 275 275 275 275 275 275 274
Wind_Speed
28 26 26 24 22 20 18 17 16 15 14 14 14 13 14 14 13 14 15 16 17 17 17 17 18 18 17 17 17 16 16 17 19 20 19 19 19 21 22 23 24 24
29 27 26 24 22 21 19 19 19 18 16 17 17 15 15 15 15 15 16 17 17 16 17 17 18 18 17 17 16 16 17 18 19 20 20 20 20 21 23 24 24 25
30 28 27 25 23 22 20 20 20 19 18 18 18 17 16 16 15 16 16 16 17 17 16 17 17 17 17 17 17 17 18 19 20 20 19 20 21 22 23 24 25 25
31 29 28 27 24 22 21 21 21 20 19 18 18 16 16 15 15 15 16 16 16 17 16 16 17 17 17 17 17 18 19 20 20 19 19 21 21 22 23 23 25 25
31 30 28 27 26 24 22 22 22 20 19 18 17 16 15 14 14 14 15 15 15 15 15 16 16 17 17 17 16 17 19 19 19 18 19 21 21 21 23 23 24 25
31 30 29 28 27 26 24 23 22 20 19 18 16 15 14 14 14 14 14 14 14 15 15 16 16 17 17 17 16 17 18 18 18 18 20 22 22 22 22 23 25 26
32 31 30 29 28 27 25 24 22 20 19 17 16 14 14 14 14 14 14 14 14 15 15 16 16 16 16 15 16 17 17 18 18 19 21 22 23 23 23 24 25 26
32 31 30 29 28 27 25 24 22 20 18 17 15 15 14 14 14 14 14 14 14 15 15 15 15 15 15 15 15 16 17 18 19 19 21 22 22 23 24 24 25 26
32 31 30 29 28 27 25 24 22 20 18 17 16 14 14 14 14 14 13 13 14 15 15 15 15 15 15 15 15 17 18 19 19 20 21 22 23 24 24 24 24 26
32 31 30 29 28 27 25 23 21 19 18 17 16 14 14 14 14 13 13 13 14 15 14 15 15 14 14 15 16 17 19 20 20 21 22 23 24 24 24 24 25 26
32 31 30 29 28 26 23 22 20 19 18 16 16 15 14 14 13 13 13 13 14 14 14 14 14 14 14 15 17 18 19 20 21 21 22 23 24 24 24 24 25 26
31 30 29 29 28 24 22 21 20 18 17 16 15 15 14 13 12 12 13 13 13 13 14 14 14 14 15 16 18 19 19 20 21 21 22 23 23 24 24 25 27 29
29 29 30 28 26 23 21 21 19 18 18 16 15 15 15 13 13 13 13 13 13 13 13 14 14 14 16 17 18 19 19 20 20 20 22 22 23 25 26 27 29 31
28 29 29 27 25 24 22 21 19 18 17 17 16 15 14 13 12 12 12 12 12 12 12 13 14 14 15 17 17 17 17 18 19 21 23 24 24 25 27 28 30 33
29 28 27 25 25 24 22 21 20 19 18 17 16 15 13 12 12 12 12 11 11 11 12 12 13 15 16 17 17 17 17 18 20 21 22 23 24 25 26 28 30 33
28 28 27 26 26 24 22 20 19 19 18 17 15 14 12 12 11 11 10 10 10 10 11 13 14 16 18 18 17 18 19 20 20 21 21 23 25 25 26 28 29 31
28 28 27 26 25 23 22 21 20 19 18 16 14 13 12 11 10 9 9 9 9 10 12 14 16 18 19 19 19 19 21 21 22 24 25 26 26 25 27 29 31 33
29 29 27 26 24 23 23 22 20 18 17 15 14 12 10 10 9 8 8 9 9 11 13 15 18 20 20 20 20 20 21 23 23 25 26 26 25 26 29 31 33 35
31 30 29 27 26 25 23 21 19 18 16 14 13 11 9 9 8 8 9 9 10 11 14 16 19 21 20 19 21 21 22 23 24 25 26 25 25 27 30 32 33 35
32 32 30 28 26 25 23 21 19 18 15 13 12 10 9 8 8 9 9 10 11 12 15 17 20 21 20 19 21 22 23 23 24 24 24 24 26 28 30 32 33 35
33 32 30 27 26 25 23 21 19 17 15 13 11 9 9 8 8 9 10 11 12 13 15 18 21 21 19 19 21 22 23 24 23 23 23 25 27 28 30 33 34 36
34 33 30 28 27 25 23 21 19 17 15 13 10 9 8 8 8 9 11 11 12 14 15 18 21 20 18 19 21 22 23 23 22 22 24 26 28 29 31 33 34 36
36 34 32 29 28 26 24 22 19 17 15 12 10 9 8 7 8 10 10 11 12 14 15 18 19 19 17 19 21 21 23 23 23 24 25 27 30 31 31 32 34 35
36 35 33 31 29 28 25 22 20 17 14 12 11 9 8 7 8 9 9 10 12 14 14 15 18 18 17 18 20 20 22 23 23 25 27 29 31 32 32 33 34 35
36 35 34 32 30 28 25 23 20 16 14 12 11 9 7 7 7 8 9 11 12 13 12 12 16 17 16 17 18 20 22 22 23 25 28 30 31 33 34 34 33 35
35 34 33 32 30 27 24 21 19 16 14 12 11 9 6 6 7 7 9 10 10 11 11 12 15 16 16 16 18 19 21 23 24 25 26 29 31 32 33 33 33 35
Wind_Direction
201 202 204 205 207 207 207 208 211 213 218 225 230 234 242 248 252 261 270 276 280 282 284 287 287 287 286 286 288 281 273 277 281 281 279 275 272 272 270 267 265 265
200 202 203 203 205 208 208 211 215 217 222 230 236 239 245 252 258 266 272 277 280 281 283 285 284 284 282 282 283 276 274 279 282 284 282 276 275 272 271 270 267 266
199 200 202 202 204 206 207 212 217 221 225 231 236 240 245 253 260 266 271 274 278 279 280 281 279 279 282 284 285 281 280 282 283 285 281 275 275 272 271 272 271 268
197 199 201 202 203 204 208 213 218 222 228 232 236 240 245 254 261 267 271 273 276 278 277 276 277 281 285 285 286 286 286 285 283 282 278 275 273 271 272 273 272 270
196 199 200 202 203 205 209 213 218 222 227 230 233 239 244 252 259 263 267 267 267 269 268 269 277 287 290 286 283 284 285 284 281 277 275 274 272 271 272 273 272 271
195 197 199 202 204 207 210 214 219 221 224 228 231 236 243 249 253 255 256 255 255 259 262 267 277 287 290 287 284 283 281 278 276 274 272 271 271 271 270 271 270 270
192 195 198 201 204 207 210 214 217 218 221 226 228 234 241 244 245 246 246 247 251 257 262 269 277 284 286 283 280 280 277 273 272 271 270 270 270 270 269 268 268 268
191 194 197 200 202 205 208 211 214 216 219 222 227 234 238 239 240 238 238 244 252 257 263 271 277 282 283 280 276 275 273 270 269 269 269 269 270 270 269 269 267 268
190 193 195 198 200 203 206 209 210 213 215 219 226 231 231 233 235 234 237 245 252 258 268 276 279 279 279 277 272 272 271 270 269 269 269 269 269 269 270 270 269 270
189 192 194 196 198 200 204 205 207 210 213 220 226 227 228 231 233 238 245 250 255 264 276 281 279 276 275 273 271 270 270 271 270 270 268 269 269 269 271 271 270 271
188 190 192 194 196 199 200 201 203 208 213 220 224 226 229 232 236 244 249 250 259 271 280 282 281 279 275 272 272 271 270 270 271 271 270 269 269 269 271 271 272 274
186 188 190 193 195 195 196 198 202 207 214 218 223 227 230 234 239 245 249 255 267 279 284 286 285 283 279 278 277 273 271 271 272 273 273 272 271 272 273 274 275 277
182 186 190 192 192 191 194 198 201 207 214 218 221 226 232 237 243 246 251 262 276 284 289 290 287 284 281 281 279 274 273 274 274 275 276 276 275 275 275 275 274 273
181 186 188 188 189 191 194 198 202 207 214 218 222 228 236 242 246 249 255 267 280 287 294 294 287 281 278 276 275 274 275 276 277 279 280 279 278 276 274 272 270 267
180 182 183 184 188 191 193 198 204 209 213 218 225 231 238 244 248 253 261 273 284 290 295 292 281 279 283 281 275 275 278 280 280 281 281 281 280 277 275 272 270 268
177 178 180 184 187 189 193 197 203 209 214 219 226 232 240 248 253 259 268 278 283 284 287 285 279 283 293 291 279 278 283 285 285 284 283 283 281 280 280 279 277 277
175 178 180 183 186 189 194 198 202 209 214 220 227 232 241 249 256 264 272 275 274 278 285 287 287 292 298 293 283 283 288 288 289 289 287 285 284 283 285 286 286 286
175 178 179 182 186 190 195 199 203 209 214 221 227 233 242 250 259 269 273 271 272 280 286 289 294 301 303 296 288 290 293 292 293 291 289 289 287 288 289 290 291 291
176 178 179 183 187 192 196 199 203 208 213 219 225 233 242 250 261 270 272 274 281 286 289 290 299 308 310 300 294 296 298 298 296 293 292 291 290 290 290 289 291 293
177 178 179 183 187 192 195 197 201 205 210 217 222 230 240 250 264 272 275 282 287 290 293 296 303 314 314 303 299 302 303 303 300 297 294 291 290 291 290 289 291 292
176 177 179 183 187 190 192 195 198 202 206 212 218 226 238 252 266 273 277 286 294 296 297 300 309 318 316 304 303 306 307 307 303 298 295 292 292 292 290 290 291 290
177 177 179 182 185 187 190 193 197 200 203 206 211 221 235 251 264 272 279 289 299 303 301 302 312 323 317 306 306 309 310 310 306 300 298 295 295 295 292 292 292 290
178 179 179 181 183 185 188 191 194 197 200 201 207 219 232 248 261 272 286 296 301 305 305 304 314 326 320 307 309 312 313 313 308 304 302 298 298 298 296 295 294 293
180 180 180 180 182 184 187 189 190 193 195 198 206 219 229 243 259 273 290 299 301 307 309 305 311 322 315 304 308 313 314 314 311 307 304 301 301 301 300 299 299 298
180 181 181 181 182 183 184 185 187 187 189 195 205 216 227 241 255 269 288 302 307 312 315 307 307 313 308 302 308 313 314 315 312 308 306 304 305 305 304 304 303 302
179 180 181 181 181 181 181 183 183 182 186 194 203 208 217 235 246 262 290 308 313 314 315 311 307 308 305 304 308 312 316 317 314 310 309 308 308 308 307 308 307 305